Vorticity
3 2 2 1 1 2 3 6 3 3 3 2 4 3 5 5 6 6 6 8 6 7 6 4 6 9 7 6 4 6 6 6 5 4 4 4 3 3 3 4 6 6 6 6 5 4 4 5 5
7 9 10 10 10 7 7 3 1 0 -1 5 2 3 3 2 3 4 6 6 5 5 11 8 5 3 6 7 6 6 6 6 5 3 2 2 2 4 4 5 6 6 6 6 6 5 5 6 6
10 10 8 7 8 11 14 7 5 6 7 2 3 3 2 2 4 5 6 8 6 6 6 6 5 6 6 6 9 5 4 5 6 6 5 5 5 5 5 6 7 6 6 5 4 3 4 3 3
8 7 6 4 8 10 10 9 6 6 11 11 4 4 4 2 6 2 1 2 3 5 7 7 6 5 6 5 4 9 9 8 8 7 8 7 6 6 6 6 7 6 6 6 6 6 6 6 6
5 4 5 5 8 5 8 7 6 9 11 12 9 5 5 4 5 5 3 4 5 5 4 4 6 8 6 4 2 5 5 7 8 7 5 5 5 6 6 7 7 6 7 8 8 7 8 8 8
3 4 4 7 6 2 4 2 5 4 4 8 9 7 5 5 5 4 2 2 4 4 4 5 5 5 5 7 8 6 8 10 7 8 8 10 9 10 10 7 8 6 5 5 6 7 7 6 6
3 4 5 5 3 1 6 7 4 5 6 7 5 5 6 10 7 5 4 3 4 4 4 3 4 4 4 5 7 8 9 10 8 9 10 8 9 11 11 9 7 5 5 5 6 6 6 7 6
4 4 4 5 3 1 5 7 4 3 6 4 5 5 7 9 13 9 6 5 4 5 5 5 5 5 5 5 5 5 5 8 14 8 6 9 9 8 9 10 9 9 8 7 6 7 6 5 3
2 4 4 4 5 6 4 4 8 5 6 5 5 6 5 5 12 10 12 12 5 6 5 5 4 4 5 4 5 4 4 7 8 8 8 8 7 8 7 7 8 8 8 7 7 5 5 4 2
3 3 2 4 4 5 1 2 4 2 5 12 3 6 6 3 7 10 8 5 7 5 4 2 2 3 3 3 3 4 5 3 4 7 7 7 6 5 7 8 9 9 9 8 6 5 6 6 4
3 1 1 5 5 4 4 5 5 5 5 6 4 6 6 5 3 5 8 8 11 11 9 5 6 6 5 5 4 4 5 5 5 5 6 5 8 6 3 4 5 6 8 10 8 6 4 3 4
4 4 4 5 7 5 5 7 4 8 11 8 7 4 9 8 2 5 6 8 8 7 6 9 12 11 2 4 5 3 2 2 3 5 4 7 5 5 6 4 6 5 6 9 10 10 9 7 6
4 4 4 5 5 7 5 6 4 3 6 7 9 8 5 9 9 5 5 5 4 6 7 7 8 9 11 7 2 3 4 5 7 6 6 6 4 2 0 4 4 5 5 5 8 11 9 9 8
5 4 2 5 9 9 5 6 2 7 5 6 6 5 6 5 10 10 6 5 5 7 7 7 6 9 7 8 12 10 4 5 6 7 5 6 7 6 5 5 5 6 8 6 6 7 11 9 7
6 6 6 8 11 6 8 10 4 4 3 7 10 7 5 9 9 13 7 5 6 4 7 8 6 6 9 10 9 12 15 9 4 3 7 6 7 9 9 8 8 7 8 8 9 6 6 7 6
6 7 8 6 9 5 4 7 5 4 5 7 8 11 8 6 9 11 14 8 6 9 5 6 7 7 8 10 11 7 9 16 14 7 6 7 8 8 8 8 7 7 7 7 9 9 7 7 7
6 6 8 5 8 7 5 5 7 5 4 5 7 10 10 8 8 10 10 13 10 7 10 3 4 7 7 4 5 6 4 7 14 13 6 6 9 7 7 7 7 10 9 6 6 8 7 6 7
11 9 8 6 8 6 5 5 8 7 3 6 7 8 7 6 5 6 5 7 10 9 8 7 3 6 7 5 3 6 8 5 2 11 11 4 4 5 7 6 6 6 5 8 8 10 11 6 6
8 8 9 11 14 9 8 10 10 7 6 5 5 6 6 4 5 5 4 7 8 12 6 6 3 4 4 3 2 2 2 4 4 5 10 13 6 2 3 6 5 3 4 6 10 4 9 9 7
12 11 12 9 11 10 9 9 12 8 8 7 6 5 2 5 4 2 3 5 5 7 12 5 6 3 7 6 2 1 3 4 6 6 3 11 9 7 2 3 4 4 4 5 7 8 6 10 8
16 11 9 6 11 16 11 9 14 13 8 11 7 9 8 4 2 3 3 2 4 4 6 10 8 5 6 9 5 2 1 1 7 6 1 1 4 6 11 7 5 2 3 5 5 5 8 6 8
7 9 13 13 13 10 13 16 10 15 8 8 15 8 7 9 8 8 8 7 5 2 5 4 5 6 -0 5 14 10 7 3 2 5 11 5 7 4 5 8 7 7 6 7 6 5 6 11 11
10 12 12 10 11 13 15 27 -6 6 12 14 12 9 6 2 3 9 7 6 8 9 10 8 9 7 4 3 1 7 7 14 5 -1 1 5 5 6 2 6 5 7 8 7 7 1 4 6 7
11 11 9 9 8 9 5 11 6 5 4 4 3 1 6 5 3 2 2 2 1 1 1 1 1 -1 1 -2 1 -3 7 14 13 6 0 1 3 5 7 6 5 5 4 6 7 6 7 7 5
8 4 4 5 4 5 5 7 7 2 6 10 6 9 16 21 20 19 15 20 20 24 16 -1 0 -5 1 1 -2 -2 8 6 13 12 10 4 5 6 1 8 5 6 6 5 9 7 8 7 7
4 2 5 5 4 4 5 5 2 2 3 14 14 10 8 7 13 9 17 7 20 19 6 26 30 11 14 0 2 7 7 6 7 10 13 7 6 3 5 7 4 6 5 5 4 8 8 7 6
6 5 4 4 4 8 5 7 9 9 9 15 6 11 13 13 11 10 11 16 3 1 7 14 12 19 20 12 9 6 6 3 5 8 10 7 8 6 7 6 5 5 5 4 10 9 6 7 6
3 3 6 6 6 10 7 16 11 9 14 14 19 14 5 3 5 10 5 7 9 13 17 14 13 32 17 26 14 8 6 2 3 7 8 7 6 7 6 8 7 7 6 10 7 6 6 7 5
5 4 5 7 7 12 13 2 19 18 13 13 10 10 10 13 12 15 10 8 19 20 19 13 29 25 21 15 18 14 11 7 7 9 6 7 8 8 6 8 8 7 5 8 8 7 7 5 6
4 9 9 9 6 3 13 11 14 17 11 7 10 4 11 17 14 19 26 24 31 15 21 21 40 9 8 20 31 12 10 12 10 10 7 6 8 8 8 9 4 10 7 5 8 7 6 6 9
Height
5824 5826 5828 5830 5836 5839 5842 5844 5843 5845 5847 5848 5853 5854 5857 5856 5858 5860 5862 5864 5864 5865 5866 5866 5867 5868 5869 5868 5869 5869 5870 5871 5871 5872 5873 5873 5873 5872 5872 5871 5871 5871 5871 5871 5871 5871 5871 5870 5870
5816 5819 5822 5823 5829 5833 5839 5837 5837 5838 5841 5846 5849 5848 5850 5847 5853 5856 5859 5859 5860 5861 5862 5864 5864 5864 5865 5866 5866 5866 5866 5867 5868 5868 5868 5869 5869 5869 5868 5868 5867 5867 5868 5868 5867 5868 5868 5867 5867
5809 5813 5817 5817 5823 5830 5834 5830 5831 5833 5837 5842 5842 5845 5845 5843 5852 5852 5854 5856 5856 5858 5859 5860 5861 5861 5861 5862 5862 5863 5863 5863 5863 5864 5864 5864 5865 5864 5864 5864 5864 5864 5864 5864 5864 5864 5864 5864 5863
5803 5807 5811 5814 5822 5825 5828 5824 5823 5827 5834 5835 5837 5841 5840 5840 5848 5848 5847 5852 5852 5854 5855 5856 5856 5857 5857 5858 5859 5860 5860 5860 5860 5860 5860 5860 5860 5860 5860 5860 5860 5860 5860 5860 5860 5860 5860 5860 5859
5797 5801 5804 5810 5819 5821 5823 5819 5820 5824 5828 5831 5832 5833 5834 5836 5843 5844 5844 5848 5851 5851 5851 5852 5853 5854 5854 5855 5855 5856 5857 5857 5857 5857 5857 5857 5857 5856 5856 5856 5856 5856 5856 5857 5856 5856 5855 5855 5856
5791 5795 5799 5807 5813 5815 5817 5817 5815 5820 5823 5824 5829 5826 5827 5832 5836 5839 5839 5844 5846 5847 5846 5847 5849 5850 5850 5851 5852 5853 5853 5853 5853 5853 5853 5853 5853 5853 5854 5853 5852 5852 5852 5853 5853 5853 5853 5852 5852
5785 5789 5794 5800 5807 5810 5814 5813 5811 5814 5817 5821 5822 5820 5821 5828 5831 5833 5835 5837 5839 5842 5843 5844 5845 5846 5846 5847 5847 5848 5849 5849 5849 5849 5849 5849 5849 5849 5850 5849 5850 5850 5849 5849 5849 5849 5849 5849 5848
5782 5782 5787 5793 5801 5808 5808 5808 5806 5807 5812 5814 5814 5816 5817 5822 5826 5827 5828 5832 5836 5838 5838 5840 5841 5842 5843 5844 5843 5843 5844 5844 5844 5844 5844 5844 5844 5845 5845 5845 5845 5845 5845 5845 5845 5845 5845 5844 5845
5774 5775 5781 5790 5794 5802 5801 5801 5799 5798 5805 5808 5808 5811 5811 5814 5820 5821 5823 5825 5829 5831 5832 5834 5836 5837 5838 5838 5839 5839 5840 5840 5840 5840 5840 5840 5840 5840 5840 5839 5840 5840 5840 5840 5840 5841 5841 5840 5840
5766 5771 5778 5784 5785 5791 5793 5792 5793 5793 5800 5804 5801 5806 5808 5806 5812 5815 5817 5817 5820 5826 5828 5828 5830 5831 5832 5833 5833 5834 5835 5835 5835 5835 5836 5835 5836 5835 5835 5835 5835 5835 5835 5835 5835 5836 5836 5835 5835
5761 5766 5771 5775 5777 5780 5784 5788 5788 5789 5794 5803 5798 5800 5799 5800 5803 5809 5811 5813 5814 5815 5820 5823 5824 5824 5826 5827 5827 5828 5829 5830 5830 5830 5831 5831 5831 5831 5831 5830 5830 5830 5830 5830 5830 5829 5829 5829 5829
5754 5758 5761 5768 5770 5772 5778 5783 5783 5785 5789 5794 5794 5790 5795 5798 5800 5803 5806 5808 5808 5810 5810 5815 5817 5819 5821 5821 5820 5822 5823 5824 5824 5824 5825 5826 5826 5826 5826 5826 5825 5825 5824 5824 5823 5822 5823 5822 5822
5745 5749 5754 5759 5762 5764 5770 5776 5776 5778 5781 5787 5789 5787 5787 5792 5795 5797 5799 5800 5802 5805 5806 5806 5809 5811 5813 5814 5814 5815 5816 5818 5819 5819 5819 5819 5819 5820 5821 5820 5820 5820 5819 5818 5817 5816 5816 5815 5815
5736 5741 5745 5751 5756 5758 5764 5770 5769 5772 5774 5780 5780 5781 5781 5783 5788 5791 5791 5794 5794 5797 5800 5801 5800 5803 5806 5808 5808 5809 5811 5811 5812 5813 5813 5813 5813 5813 5814 5813 5814 5814 5813 5813 5811 5811 5810 5809 5808
5729 5735 5740 5744 5748 5750 5753 5761 5762 5764 5766 5769 5773 5774 5775 5778 5779 5784 5786 5785 5788 5788 5790 5794 5795 5794 5798 5800 5801 5801 5803 5804 5805 5806 5807 5807 5807 5808 5807 5807 5807 5807 5807 5806 5806 5804 5803 5802 5801
5721 5726 5731 5736 5737 5743 5745 5755 5757 5756 5758 5761 5765 5768 5769 5770 5772 5774 5778 5779 5781 5784 5782 5785 5790 5789 5791 5793 5793 5794 5794 5797 5798 5800 5801 5801 5801 5801 5800 5800 5800 5800 5799 5798 5797 5797 5796 5795 5794
5713 5718 5723 5727 5729 5732 5738 5743 5748 5748 5750 5755 5759 5761 5763 5764 5766 5768 5771 5774 5774 5776 5778 5776 5780 5783 5784 5786 5786 5786 5787 5789 5790 5791 5793 5795 5795 5794 5794 5793 5793 5793 5792 5791 5790 5789 5788 5787 5786
5708 5710 5713 5718 5721 5723 5728 5733 5739 5741 5743 5748 5751 5753 5754 5756 5759 5761 5762 5764 5765 5767 5768 5770 5769 5775 5778 5777 5778 5780 5779 5784 5784 5783 5785 5789 5788 5786 5787 5787 5787 5786 5785 5784 5783 5782 5780 5779 5778
5698 5702 5708 5710 5714 5719 5724 5730 5734 5735 5736 5739 5741 5743 5746 5748 5749 5752 5754 5755 5756 5758 5759 5760 5762 5765 5769 5772 5771 5772 5771 5774 5776 5775 5778 5781 5782 5779 5779 5780 5780 5779 5778 5777 5776 5774 5773 5771 5770
5692 5697 5702 5704 5706 5710 5715 5721 5724 5726 5730 5730 5733 5735 5737 5739 5739 5741 5743 5745 5746 5748 5749 5749 5751 5754 5757 5762 5766 5764 5764 5765 5767 5768 5771 5773 5772 5771 5772 5773 5773 5772 5771 5770 5768 5766 5765 5763 5762
5686 5690 5693 5698 5701 5704 5708 5714 5717 5719 5721 5723 5724 5725 5727 5728 5730 5730 5731 5734 5737 5739 5740 5741 5742 5742 5745 5750 5753 5755 5755 5757 5759 5762 5763 5763 5761 5762 5764 5765 5765 5764 5763 5762 5761 5759 5757 5755 5753
5681 5684 5689 5694 5697 5699 5702 5704 5712 5712 5713 5713 5714 5716 5717 5717 5718 5720 5721 5723 5726 5729 5730 5731 5731 5733 5735 5738 5742 5745 5747 5749 5751 5751 5754 5754 5754 5754 5754 5755 5755 5755 5754 5754 5752 5750 5748 5747 5745
5678 5682 5686 5688 5690 5694 5698 5697 5707 5706 5705 5703 5704 5707 5706 5707 5707 5708 5711 5713 5715 5716 5719 5721 5721 5722 5724 5727 5732 5734 5736 5738 5741 5742 5744 5744 5744 5745 5746 5746 5746 5746 5745 5745 5744 5742 5741 5738 5736
5675 5678 5681 5684 5687 5689 5692 5693 5697 5697 5697 5696 5696 5692 5692 5692 5694 5697 5699 5701 5702 5704 5705 5707 5711 5713 5714 5716 5721 5723 5727 5729 5730 5731 5733 5733 5735 5734 5736 5736 5737 5738 5737 5736 5734 5733 5732 5730 5727
5672 5675 5678 5680 5682 5685 5686 5687 5693 5687 5681 5682 5680 5679 5676 5675 5677 5681 5683 5685 5687 5687 5687 5688 5692 5698 5700 5701 5708 5712 5715 5719 5720 5719 5721 5723 5725 5726 5727 5728 5728 5728 5728 5726 5725 5724 5722 5720 5717
5669 5672 5674 5675 5677 5678 5678 5680 5681 5678 5673 5668 5667 5665 5663 5661 5662 5664 5665 5666 5665 5665 5668 5670 5672 5676 5680 5686 5694 5698 5703 5707 5707 5708 5711 5714 5716 5717 5718 5719 5718 5718 5718 5717 5716 5715 5713 5710 5707
5667 5669 5670 5670 5671 5669 5669 5670 5669 5666 5663 5659 5654 5650 5648 5645 5643 5646 5647 5646 5645 5645 5645 5650 5656 5658 5660 5668 5677 5683 5691 5694 5695 5698 5700 5703 5705 5706 5708 5709 5708 5708 5708 5707 5706 5705 5702 5699 5696
5661 5665 5666 5665 5662 5661 5660 5659 5658 5657 5653 5647 5641 5636 5631 5627 5621 5624 5627 5627 5623 5624 5625 5629 5634 5639 5642 5648 5659 5668 5676 5679 5682 5686 5690 5692 5693 5696 5698 5698 5699 5699 5698 5697 5696 5694 5692 5689 5685
5658 5659 5658 5658 5657 5653 5650 5648 5649 5641 5635 5632 5627 5620 5615 5611 5605 5603 5604 5603 5601 5602 5604 5608 5614 5620 5625 5632 5641 5653 5662 5668 5670 5675 5679 5681 5685 5687 5688 5689 5690 5690 5689 5688 5686 5683 5681 5678 5674
5653 5653 5653 5652 5652 5650 5644 5639 5638 5634 5628 5622 5615 5608 5602 5591 5585 5581 5583 5586 5584 5584 5586 5589 5594 5601 5609 5616 5627 5641 5649 5655 5660 5665 5668 5672 5676 5678 5680 5681 5682 5680 5679 5678 5676 5673 5670 5666 5662